Regional Weather Roundup
Issued by NWS Upton, NY

Current Version | Previous Version | Text Only | Print | Product List | Glossary On
Versions: 1 2 3 4 5 6 7 8 9 10 11 12 13 14 15 16 17 18 19 20 21 22 23 24 25 26 27 28 29 30 31 32 33 34 35 36 37 38 39 40 41 42 43 44 45 46 47 48 49 50
000 ASUS41 KOKX 291705 RWROKX REGIONAL WEATHER ROUNDUP NATIONAL WEATHER SERVICE NEW YORK NY 1200 PM EST THU JAN 29 2015 NOTE: "FAIR" INDICATES FEW OR NO CLOUDS BELOW 12,000 FEET WITH NO SIGNIFICANT WEATHER AND/OR OBSTRUCTIONS TO VISIBILITY. NYZ071-072-176-178-NJZ106-104-291800- NEW YORK CITY METRO AREA CITY SKY/WX TMP DP RH WIND PRES REMARKS CENTRAL PARK SUNNY 31 6 35 VRB3 30.29F LAGUARDIA APRT PTSUNNY 28 9 44 E5 30.28F WCI 23 KENNEDY INTL PTSUNNY 28 10 46 SW6 30.30F WCI 22 NEWARK/LIBERTY PTSUNNY 29 8 41 E5 30.28F WCI 24 BRNX BOT. GARD N/A N/A N/A N/A E5 30.29F TETERBORO SUNNY 28 4 35 CALM 30.27F $$ NYZ177-179-078>081-291800- LONG ISLAND NEW YORK CITY SKY/WX TMP DP RH WIND PRES REMARKS FARMINGDALE SUNNY 32 8 36 CALM 30.28F ISLIP PTSUNNY 31 6 35 SE5 30.26F WCI 26 SHIRLEY SUNNY 31 10 41 S5 30.28F WCI 26 WESTHAMPTON SUNNY 30 9 41 E5 30.29F WCI 25 MONTAUK POINT N/A 32 19 58 NE5 30.28F WCI 27 $$ NYZ052-065-067-291800- HUDSON VALLEY CITY SKY/WX TMP DP RH WIND PRES REMARKS WHITE PLAINS SUNNY 28 4 35 SE5 30.24F WCI 23 NEWBURGH PTSUNNY N/A N/A N/A CALM 30.27F MONTGOMERY SUNNY 22 2 42 CALM 30.24F POUGHKEEPSIE SUNNY 23 2 40 CALM 30.27F ALBANY CLOUDY 18 1 47 SE5 30.24F WCI 11 $$ NJZ001-105-106-008-010-013-015-019>022-104-291800- NEW JERSEY CITY SKY/WX TMP DP RH WIND PRES REMARKS NEWARK/LIBERTY PTSUNNY 29 8 41 E5 30.28F WCI 24 TETERBORO SUNNY 28 4 35 CALM 30.27F CALDWELL MOSUNNY 29 1 30 CALM 30.27F MORRISTOWN PTSUNNY 28 5 37 CALM 30.28F SOMERVILLE PTSUNNY 29 2 31 SE3 30.26F SUSSEX MOSUNNY 23 1 38 CALM 30.24F ANDOVER N/A 25 2 37 NE3 30.23F TRENTON PTSUNNY 27 5 39 SW3 30.27F MILLVILLE PTSUNNY 34 9 35 CALM 30.27F ATLANTIC CITY MOSUNNY 33 18 53 SE7 30.27F WCI 27 WRIGHTSTOWN PTSUNNY 31 10 41 SW5 30.25F WCI 26 TOMS RIVER MOSUNNY 32 14 47 CALM 30.28F BELMAR MOSUNNY 28 12 50 E3 30.27F $$ PAZ047>061-062-071-291800- EASTERN PENNSYLVANIA CITY SKY/WX TMP DP RH WIND PRES REMARKS PHILADELPHIA CLOUDY 32 5 32 SE5 30.28F WCI 27 ALLENTOWN PTSUNNY 24 6 46 NE6 30.24F WCI 17 SCRANTON CLOUDY 21 8 57 CALM 30.14F $$ CTZ002-004>006-009-010-012-RIZ004-006-007-MAZ004-011-015-291800- SOUTHERN NEW ENGLAND IN CT CITY SKY/WX TMP DP RH WIND PRES REMARKS BRADLEY INTL PTSUNNY 20 1 43 CALM 30.27F HARTFORD SUNNY 21 2 43 SE6 30.29F WCI 13 DANBURY SUNNY 29 1 30 CALM 30.25F WTRBRY/OXFORD MOSUNNY 28 1 31 VRB5 30.24F WCI 23 BRIDGEPORT SUNNY 28 7 41 CALM 30.29F MERIDEN SUNNY 23 1 38 CALM 30.28F NEW HAVEN SUNNY 28 2 32 VRB3 30.28F CHESTER FAIR 30 -4 22 SE6 30.25F WCI 24 GROTON SUNNY 27 6 41 SW3 30.27F WILLIMANTIC SUNNY 26 0 32 W3 30.27F IN RI CITY SKY/WX TMP DP RH WIND PRES REMARKS PROVIDENCE PTSUNNY 28 3 34 CALM 30.28F BLOCK ISLAND SUNNY 30 18 59 NE6 30.26F WCI 24 WESTERLY SUNNY 30 10 43 SE3 30.27F IN MA CITY SKY/WX TMP DP RH WIND PRES REMARKS BOSTON PTSUNNY 30 10 43 CALM 30.28F WORCESTER SUNNY 26 -4 27 SE6 30.20F WCI 19 WESTFIELD SUNNY 23 0 36 CALM 30.26F PROVINCETOWN NOT AVBL NANTUCKET SUNNY 33 25 72 NW9 30.25F WCI 25 $$ ANZ330-335-338-340-345-350-353-355-291800- COASTAL MARINE OBSERVATIONS STATION/POSITION TIME SKY/WX TEMP WIND PRES VSBY WAVE AIR SEA DIR/SP/G HT/PER (UTC) (F) (DEG/KT/KT) (MB) (MI) (FT/S) NY HARB ENTRANCE 1700 29 40 CALM / 4 1025.6 2/11 4S FIRE IS NOT AVBL 20S FIRE ISLAND 1600 42 1026.9 2/10 23SW MTP 1700 N/A 3/11 HUDSON CANYON NOT AVBL EXECUTION ROCKS 1700 33 33 50/ 4/ 6 N/A WESTERN LI SOUND 1700 26 80/ 4/ 8 N/A 0 CENTRAL LI SOUND 1600 27 35 CALM / 4 N/A 1 EASTERN LI SOUND NOT AVBL ROBBINS REEF NOT AVBL $$ >>>>>>>>>>>>>>>>>>>>>>>>>>>> KEY <<<<<<<<<<<<<<<<<<<<<<<<<<< > < > SKY/WX - SKY CONDITION/PRESENT WEATHER < > TMP - TEMPERATURE IN FAHRENHEIT < > DP - DEWPOINT IN FAHRENHEIT < > RH - RELATIVE HUMIDITY IN PERCENT < > WIND - DIRECTION AND SPEED IN MPH < > PRES - MEAN SEA LEVEL PRESSURE IN INCHES OF HG < > WCI - WIND CHILL INDEX < > VSB - VISIBILITY IN MILES < > HX - HEAT INDEX < > TC - TEMPERATURE IN CELSIUS < > VRB - VARIABLE WIND DIRECTION < > < >>>>>>>>>>>>>>>>>>>>>>>>>>>> KEY <<<<<<<<<<<<<<<<<<<<<<<<<<<

USA.gov is the U.S. government's official web portal to all federal, state and local government web resources and services.